Location: Moscow
(55.7500°N, 37.5830°E)
Time: 05:44:47
(UTC+03:00)

Envisat - Pass Details

Date: 27 October 2021
Orbit: 764 x 766 km, 98.2° (Epoch: 28 November)

Event Time Altitude Azimuth Distance (km) Brightness Sun altitude
Rises 05:22:45 0° 18° (NNE) 3,247 6.5 -17.7°
Reaches altitude 10° 05:25:08 10° 23° (NNE) 2,316 5.8 -17.4°
Maximum altitude 05:30:07 51° 99° (E) 964 3.9 -16.7°
Drops below altitude 10° 05:35:03 10° 176° (S) 2,298 5.5 -16.0°
Sets 05:37:24 0° 181° (S) 3,220 6.2 -15.6°
